| time (UTC) | temp F | wind direction | speed MPH | gust MPH | rain 1hr in | rain 24hr in | rain mn in | humidity % | barometer mb |
| 20260503012317 | 69 | 205 | 4.0 | 9.0 | 0.00 | 0.00 | 0.00 | 62 | 1021.4 |
| 20260503011317 | 69 | 228 | 4.0 | 7.0 | 0.00 | 0.00 | 0.00 | 63 | 1021.5 |
| 20260503010317 | 69 | 216 | 8.0 | 14.0 | 0.00 | 0.00 | 0.00 | 63 | 1021.6 |
| 20260503005318 | 69 | 215 | 8.0 | 12.0 | 0.00 | 0.00 | 0.00 | 62 | 1021.4 |
| 20260503005217 | 69 | 208 | 11.0 | 16.0 | 0.00 | 0.00 | 0.00 | 63 | 1021.5 |
| 20260503002218 | 68 | 225 | 8.0 | 11.0 | 0.00 | 0.00 | 0.00 | 63 | 1021.4 |
| 20260503001217 | 68 | 216 | 5.0 | 9.0 | 0.00 | 0.00 | 0.00 | 63 | 1021.4 |
| 20260503000318 | 68 | 225 | 7.0 | 9.0 | 0.00 | 0.00 | 0.00 | 61 | 1021.4 |
| 20260502235320 | 69 | 229 | 7.0 | 9.0 | 0.00 | 0.00 | 0.00 | 59 | 1021.4 |
| 20260502234319 | 70 | 225 | 8.0 | 9.0 | 0.00 | 0.00 | 0.00 | 58 | 1021.4 |
| 20260502233417 | 70 | 216 | 4.0 | 8.0 | 0.00 | 0.00 | 0.00 | 57 | 1021.5 |
| 20260502232417 | 70 | 225 | 5.0 | 6.0 | 0.00 | 0.00 | 0.00 | 58 | 1021.6 |
| 20260502230418 | 68 | 232 | 4.0 | 5.0 | 0.00 | 0.00 | 0.00 | 60 | 1022.2 |
| 20260502225517 | 68 | 205 | 4.0 | 7.0 | 0.00 | 0.00 | 0.00 | 61 | 1022.2 |
| 20260502223518 | 66 | 243 | 5.0 | 6.0 | 0.00 | 0.00 | 0.00 | 65 | 1022.6 |
| 20260502222617 | 65 | 227 | 4.0 | 5.0 | 0.00 | 0.00 | 0.00 | 66 | 1022.8 |
| 20260502220618 | 64 | 246 | 7.0 | 8.0 | 0.00 | 0.00 | 0.00 | 68 | 1023.3 |
| 20260502220517 | 64 | 242 | 6.0 | 7.0 | 0.00 | 0.00 | 0.00 | 67 | 1023.3 |
| 20260502215616 | 64 | 225 | 6.0 | 9.0 | 0.00 | 0.00 | 0.00 | 68 | 1023.5 |
| 20260502214618 | 63 | 215 | 7.0 | 11.0 | 0.00 | 0.00 | 0.00 | 69 | 1023.7 |
| 20260502213618 | 62 | 210 | 7.0 | 13.0 | 0.00 | 0.00 | 0.00 | 70 | 1023.8 |
| 20260502213519 | 62 | 224 | 9.0 | 13.0 | 0.00 | 0.00 | 0.00 | 69 | 1023.9 |
| 20260502211617 | 62 | 228 | 5.0 | 9.0 | 0.00 | 0.00 | 0.00 | 69 | 1024.1 |
| 20260502210618 | 63 | 224 | 11.0 | 14.0 | 0.00 | 0.00 | 0.00 | 69 | 1024.2 |
| 20260502205619 | 63 | 209 | 9.0 | 12.0 | 0.00 | 0.00 | 0.00 | 68 | 1024.1 |
| 20260502203716 | 62 | 242 | 5.0 | 9.0 | 0.00 | 0.00 | 0.00 | 69 | 1024.3 |
| 20260502202720 | 62 | 228 | 6.0 | 8.0 | 0.00 | 0.00 | 0.00 | 71 | 1024.4 |
| 20260502201719 | 62 | 225 | 5.0 | 8.0 | 0.00 | 0.00 | 0.00 | 71 | 1024.5 |
| 20260502200718 | 61 | 215 | 9.0 | 14.0 | 0.00 | 0.00 | 0.00 | 73 | 1024.4 |
| 20260502200619 | 61 | 210 | 11.0 | 15.0 | 0.00 | 0.00 | 0.00 | 72 | 1024.5 |
| 20260502195619 | 59 | 211 | 11.0 | 16.0 | 0.00 | 0.00 | 0.00 | 75 | 1024.7 |
| 20260502194717 | 59 | 229 | 6.0 | 11.0 | 0.00 | 0.00 | 0.00 | 76 | 1024.9 |
| 20260502193719 | 58 | 230 | 11.0 | 14.0 | 0.00 | 0.00 | 0.00 | 78 | 1024.7 |
| 20260502193616 | 57 | 232 | 10.0 | 12.0 | 0.00 | 0.00 | 0.00 | 78 | 1024.7 |
| 20260502192619 | 56 | 343 | 12.0 | 15.0 | 0.00 | 0.00 | 0.00 | 80 | 1024.0 |
| 20260502190619 | 57 | 45 | 9.0 | 12.0 | 0.00 | 0.00 | 0.00 | 77 | 1024.4 |
| 20260502185618 | 57 | 45 | 6.0 | 10.0 | 0.00 | 0.00 | 0.00 | 77 | 1025.1 |
| 20260502184618 | 57 | 315 | 0.0 | 0.0 | 0.00 | 0.00 | 0.00 | 77 | 1026.0 |
| 20260502183620 | 56 | 225 | 2.0 | 3.0 | 0.00 | 0.00 | 0.00 | 78 | 1026.3 |
| 20260502182617 | 56 | 210 | 1.0 | 4.0 | 0.00 | 0.00 | 0.00 | 79 | 1026.6 |
| 20260502181617 | 56 | 225 | 6.0 | 9.0 | 0.00 | 0.00 | 0.00 | 79 | 1026.5 |
| 20260502180717 | 56 | 204 | 2.0 | 9.0 | 0.00 | 0.00 | 0.00 | 79 | 1026.5 |
| 20260502163818 | 54 | 233 | 4.0 | 5.0 | 0.00 | 0.00 | 0.00 | 82 | 1026.7 |
| 20260502161820 | 53 | 225 | 4.0 | 4.0 | 0.00 | 0.00 | 0.00 | 84 | 1026.9 |
| 20260502160817 | 53 | 225 | 4.0 | 4.0 | 0.00 | 0.00 | 0.00 | 83 | 1026.8 |
| 20260502151917 | 52 | 211 | 5.0 | 10.0 | 0.00 | 0.00 | 0.00 | 85 | 1027.0 |
| 20260502150917 | 52 | 223 | 5.0 | 6.0 | 0.00 | 0.00 | 0.00 | 86 | 1026.9 |
| 20260502122817 | 52 | 220 | 8.0 | 11.0 | 0.00 | 0.00 | 0.00 | 85 | 1026.0 |
| 20260502121820 | 52 | 225 | 10.0 | 12.0 | 0.00 | 0.00 | 0.00 | 86 | 1025.9 |
| 20260502120916 | 52 | 232 | 8.0 | 14.0 | 0.00 | 0.00 | 0.00 | 86 | 1026.0 |
| 20260502115917 | 52 | 226 | 10.0 | 14.0 | 0.00 | 0.00 | 0.00 | 85 | 1025.8 |
| 20260502114019 | 52 | 225 | 8.0 | 11.0 | 0.00 | 0.00 | 0.00 | 85 | 1025.7 |
| 20260502113117 | 53 | 225 | 5.0 | 7.0 | 0.00 | 0.00 | 0.00 | 84 | 1025.8 |
| 20260502111118 | 53 | 225 | 0.0 | 1.0 | 0.00 | 0.00 | 0.00 | 84 | 1025.8 |
| 20260502110217 | 53 | 225 | 4.0 | 5.0 | 0.00 | 0.00 | 0.00 | 84 | 1026.1 |
| 20260502104316 | 53 | 223 | 6.0 | 8.0 | 0.00 | 0.00 | 0.00 | 83 | 1026.3 |
| 20260502103317 | 53 | 212 | 8.0 | 12.0 | 0.00 | 0.00 | 0.00 | 83 | 1026.4 |
| 20260502102318 | 53 | 218 | 7.0 | 11.0 | 0.00 | 0.00 | 0.00 | 82 | 1026.5 |
| 20260502101319 | 53 | 225 | 6.0 | 8.0 | 0.00 | 0.00 | 0.00 | 82 | 1026.4 |
| 20260502100317 | 54 | 221 | 4.0 | 6.0 | 0.00 | 0.00 | 0.00 | 82 | 1026.5 |
| 20260502091418 | 54 | 229 | 8.0 | 13.0 | 0.00 | 0.00 | 0.00 | 80 | 1027.4 |
| 20260502090418 | 54 | 226 | 12.0 | 16.0 | 0.00 | 0.00 | 0.00 | 81 | 1027.4 |
| 20260502071417 | 56 | 211 | 12.0 | 17.0 | 0.00 | 0.00 | 0.00 | 76 | 1026.6 |
| 20260502070418 | 57 | 219 | 10.0 | 15.0 | 0.00 | 0.00 | 0.00 | 75 | 1026.8 |
| 20260502064524 | 57 | 223 | 12.0 | 18.0 | 0.00 | 0.00 | 0.00 | 76 | 1026.1 |
| 20260502063525 | 58 | 211 | 10.0 | 13.0 | 0.00 | 0.00 | 0.00 | 73 | 1026.1 |
| 20260502062525 | 58 | 225 | 9.0 | 14.0 | 0.00 | 0.00 | 0.00 | 72 | 1026.3 |
| 20260502061526 | 59 | 212 | 10.0 | 15.0 | 0.00 | 0.00 | 0.00 | 71 | 1026.3 |
| 20260502055527 | 60 | 217 | 12.0 | 22.0 | 0.00 | 0.00 | 0.00 | 69 | 1026.1 |
| 20260502053524 | 61 | 210 | 14.0 | 23.0 | 0.00 | 0.00 | 0.00 | 68 | 1026.0 |
| 20260502051524 | 62 | 224 | 10.0 | 15.0 | 0.00 | 0.00 | 0.00 | 65 | 1025.9 |
| 20260502051425 | 62 | 220 | 7.0 | 11.0 | 0.00 | 0.00 | 0.00 | 64 | 1026.0 |
| 20260502050426 | 63 | 224 | 14.0 | 18.0 | 0.00 | 0.00 | 0.00 | 62 | 1025.6 |
| 20260502050327 | 63 | 222 | 12.0 | 18.0 | 0.00 | 0.00 | 0.00 | 62 | 1025.6 |
| 20260502044326 | 64 | 227 | 8.0 | 10.0 | 0.00 | 0.00 | 0.00 | 60 | 1025.2 |
| 20260502043326 | 65 | 225 | 10.0 | 13.0 | 0.00 | 0.00 | 0.00 | 57 | 1025.1 |
| 20260502042327 | 66 | 223 | 7.0 | 11.0 | 0.00 | 0.00 | 0.00 | 55 | 1024.8 |
| 20260502041425 | 67 | 223 | 8.0 | 11.0 | 0.00 | 0.00 | 0.00 | 53 | 1024.9 |
| 20260502040426 | 67 | 224 | 9.0 | 14.0 | 0.00 | 0.00 | 0.00 | 54 | 1024.9 |
| 20260502034425 | 67 | 213 | 4.0 | 7.0 | 0.00 | 0.00 | 0.00 | 55 | 1024.7 |
| 20260502032526 | 68 | 219 | 7.0 | 11.0 | 0.00 | 0.00 | 0.00 | 55 | 1024.2 |
| 20260502031428 | 68 | 223 | 7.0 | 10.0 | 0.00 | 0.00 | 0.00 | 54 | 1024.3 |
| 20260502030429 | 69 | 226 | 9.0 | 13.0 | 0.00 | 0.00 | 0.00 | 53 | 1024.3 |
| 20260502025525 | 69 | 226 | 8.0 | 11.0 | 0.00 | 0.00 | 0.00 | 53 | 1024.3 |
| 20260502024525 | 70 | 225 | 11.0 | 14.0 | 0.00 | 0.00 | 0.00 | 52 | 1024.0 |
| 20260502021526 | 70 | 225 | 10.0 | 13.0 | 0.00 | 0.00 | 0.00 | 50 | 1023.6 |
| 20260502020624 | 71 | 228 | 11.0 | 15.0 | 0.00 | 0.00 | 0.00 | 50 | 1023.7 |
| 20260502014627 | 71 | 227 | 13.0 | 18.0 | 0.00 | 0.00 | 0.00 | 49 | 1023.6 |
| 20260502013626 | 71 | 227 | 16.0 | 20.0 | 0.00 | 0.00 | 0.00 | 49 | 1023.6 |
| 20260502012625 | 71 | 233 | 12.0 | 17.0 | 0.00 | 0.00 | 0.00 | 48 | 1023.4 |